| time (UTC) | temp F | wind direction | speed MPH | gust MPH | rain 1hr in | rain 24hr in | rain mn in | humidity % | barometer mb |
| 20260509200327 | 67 | 125 | 2.0 | 4.0 | 0.01 | 0.03 | 0.03 | 56 | 1007.4 |
| 20260509195326 | 67 | 163 | 4.0 | 7.0 | 0.01 | 0.03 | 0.03 | 55 | 1007.4 |
| 20260509194336 | 67 | 163 | 2.0 | 8.0 | 0.00 | 0.02 | 0.02 | 56 | 1007.5 |
| 20260509193338 | 68 | 67 | 5.0 | 8.0 | 0.00 | 0.02 | 0.02 | 55 | 1007.5 |
| 20260509192329 | 68 | 162 | 3.0 | 8.0 | 0.00 | 0.02 | 0.02 | 55 | 1007.4 |
| 20260509191330 | 69 | 196 | 4.0 | 11.0 | 0.00 | 0.02 | 0.02 | 53 | 1007.5 |
| 20260509190314 | 70 | 107 | 4.0 | 12.0 | 0.00 | 0.02 | 0.02 | 52 | 1007.4 |
| 20260509185339 | 69 | 28 | 2.0 | 10.0 | 0.00 | 0.02 | 0.02 | 53 | 1007.5 |
| 20260509184359 | 69 | 172 | 4.0 | 9.0 | 0.00 | 0.02 | 0.02 | 55 | 1007.6 |
| 20260509183338 | 68 | 156 | 2.0 | 10.0 | 0.00 | 0.02 | 0.02 | 57 | 1007.6 |
| 20260509182319 | 68 | 184 | 2.0 | 9.0 | 0.00 | 0.02 | 0.02 | 56 | 1007.9 |
| 20260509181323 | 68 | 192 | 1.0 | 8.0 | 0.00 | 0.02 | 0.02 | 62 | 1008.0 |
| 20260509180334 | 65 | 114 | 1.0 | 4.0 | 0.00 | 0.02 | 0.02 | 66 | 1008.2 |
| 20260509175353 | 65 | 332 | 3.0 | 5.0 | 0.00 | 0.02 | 0.02 | 64 | 1008.5 |
| 20260509174354 | 65 | 334 | 1.0 | 5.0 | 0.00 | 0.02 | 0.02 | 65 | 1008.8 |
| 20260509173337 | 65 | 117 | 2.0 | 4.0 | 0.00 | 0.02 | 0.02 | 67 | 1009.0 |
| 20260509172347 | 64 | 300 | 2.0 | 5.0 | 0.00 | 0.02 | 0.02 | 69 | 1009.2 |
| 20260509171355 | 61 | 305 | 2.0 | 3.0 | 0.00 | 0.02 | 0.02 | 71 | 1009.4 |
| 20260509170358 | 61 | 302 | 1.0 | 3.0 | 0.00 | 0.02 | 0.02 | 71 | 1009.5 |
| 20260509165318 | 60 | 335 | 1.0 | 5.0 | 0.00 | 0.02 | 0.02 | 74 | 1009.4 |
| 20260509164320 | 60 | 338 | 3.0 | 5.0 | 0.00 | 0.02 | 0.02 | 73 | 1009.4 |
| 20260509163319 | 61 | 345 | 2.0 | 4.0 | 0.00 | 0.02 | 0.02 | 74 | 1009.0 |
| 20260509162336 | 61 | 339 | 2.0 | 4.0 | 0.00 | 0.02 | 0.02 | 73 | 1009.2 |
| 20260509161333 | 60 | 340 | 1.0 | 3.0 | 0.00 | 0.02 | 0.02 | 74 | 1009.5 |
| 20260509160337 | 60 | 346 | 1.0 | 2.0 | 0.00 | 0.02 | 0.02 | 75 | 1009.5 |
| 20260509155315 | 60 | 84 | 1.0 | 6.0 | 0.00 | 0.02 | 0.02 | 72 | 1009.5 |
| 20260509154318 | 60 | 104 | 1.0 | 5.0 | 0.00 | 0.02 | 0.02 | 74 | 1009.7 |
| 20260509153351 | 60 | 351 | 2.0 | 4.0 | 0.00 | 0.02 | 0.02 | 73 | 1009.6 |
| 20260509152333 | 61 | 12 | 2.0 | 5.0 | 0.00 | 0.02 | 0.02 | 75 | 1009.6 |
| 20260509151335 | 61 | 328 | 4.0 | 8.0 | 0.00 | 0.02 | 0.02 | 76 | 1009.7 |
| 20260509150335 | 60 | 50 | 1.0 | 4.0 | 0.00 | 0.02 | 0.02 | 77 | 1009.7 |
| 20260509145338 | 59 | 25 | 1.0 | 4.0 | 0.00 | 0.02 | 0.02 | 85 | 1009.9 |
| 20260509144330 | 57 | 346 | 2.0 | 5.0 | 0.00 | 0.02 | 0.02 | 87 | 1009.7 |
| 20260509143315 | 56 | 53 | 2.0 | 4.0 | 0.00 | 0.02 | 0.02 | 88 | 1009.6 |
| 20260509142326 | 56 | 11 | 2.0 | 3.0 | 0.00 | 0.02 | 0.02 | 88 | 1009.7 |
| 20260509141333 | 56 | 360 | 2.0 | 4.0 | 0.00 | 0.02 | 0.02 | 89 | 1009.4 |
| 20260509140359 | 55 | 346 | 1.0 | 3.0 | 0.00 | 0.02 | 0.02 | 88 | 1009.4 |
| 20260509135319 | 55 | 79 | 0.0 | 1.0 | 0.01 | 0.02 | 0.02 | 88 | 1009.5 |
| 20260509134320 | 55 | 96 | 0.0 | 1.0 | 0.02 | 0.02 | 0.02 | 88 | 1009.7 |
| 20260509133333 | 54 | 96 | 0.0 | 2.0 | 0.02 | 0.02 | 0.02 | 87 | 1009.8 |
| 20260509132312 | 55 | 87 | 0.0 | 2.0 | 0.02 | 0.02 | 0.02 | 86 | 1009.6 |
| 20260509131335 | 55 | 78 | 0.0 | 2.0 | 0.02 | 0.02 | 0.02 | 85 | 1009.6 |
| 20260509130334 | 55 | 71 | 1.0 | 3.0 | 0.02 | 0.02 | 0.02 | 84 | 1009.6 |
| 20260509125313 | 55 | 9 | 1.0 | 3.0 | 0.01 | 0.01 | 0.01 | 83 | 1009.5 |
| 20260509124340 | 55 | 360 | 1.0 | 2.0 | 0.00 | 0.00 | 0.00 | 81 | 1009.6 |
| 20260509123334 | 56 | 40 | 1.0 | 2.0 | 0.00 | 0.00 | 0.00 | 78 | 1009.6 |
| 20260509122326 | 56 | 19 | 1.0 | 3.0 | 0.00 | 0.00 | 0.00 | 76 | 1009.7 |
| 20260509121313 | 56 | 84 | 1.0 | 2.0 | 0.00 | 0.00 | 0.00 | 75 | 1009.9 |
| 20260509120336 | 56 | 84 | 1.0 | 3.0 | 0.00 | 0.00 | 0.00 | 76 | 1009.8 |
| 20260509115312 | 55 | 49 | 2.0 | 5.0 | 0.00 | 0.00 | 0.00 | 78 | 1009.6 |
| 20260509114321 | 55 | 31 | 1.0 | 4.0 | 0.00 | 0.00 | 0.00 | 77 | 1009.6 |
| 20260509113333 | 56 | 11 | 1.0 | 3.0 | 0.00 | 0.00 | 0.00 | 77 | 1009.5 |
| 20260509112323 | 56 | 360 | 1.0 | 3.0 | 0.00 | 0.00 | 0.00 | 74 | 1009.5 |
| 20260509111336 | 56 | 118 | 0.0 | 2.0 | 0.00 | 0.00 | 0.00 | 73 | 1009.5 |
| 20260509110333 | 56 | 118 | 1.0 | 3.0 | 0.00 | 0.00 | 0.00 | 70 | 1009.5 |
| 20260509105338 | 56 | 311 | 0.0 | 3.0 | 0.00 | 0.00 | 0.00 | 67 | 1009.5 |
| 20260509104313 | 56 | 290 | 2.0 | 3.0 | 0.00 | 0.00 | 0.00 | 67 | 1009.3 |
| 20260509103318 | 56 | 157 | 1.0 | 2.0 | 0.00 | 0.00 | 0.00 | 63 | 1009.0 |
| 20260509102338 | 57 | 298 | 1.0 | 3.0 | 0.00 | 0.00 | 0.00 | 64 | 1008.9 |
| 20260509101317 | 57 | 301 | 2.0 | 6.0 | 0.00 | 0.00 | 0.00 | 59 | 1008.7 |
| 20260509100313 | 57 | 160 | 4.0 | 6.0 | 0.00 | 0.00 | 0.00 | 60 | 1008.6 |
| 20260509095312 | 57 | 157 | 1.0 | 3.0 | 0.00 | 0.00 | 0.00 | 59 | 1008.7 |
| 20260509094315 | 56 | 184 | 2.0 | 5.0 | 0.00 | 0.00 | 0.00 | 59 | 1008.7 |
| 20260509093335 | 56 | 135 | 3.0 | 7.0 | 0.00 | 0.00 | 0.00 | 62 | 1008.7 |
| 20260509092314 | 55 | 242 | 0.0 | 2.0 | 0.00 | 0.00 | 0.00 | 66 | 1008.7 |
| 20260509091314 | 56 | 242 | 0.0 | 1.0 | 0.00 | 0.00 | 0.00 | 65 | 1008.7 |
| 20260509090335 | 56 | 242 | 0.0 | 1.0 | 0.00 | 0.00 | 0.00 | 63 | 1008.7 |
| 20260509085317 | 56 | 242 | 1.0 | 2.0 | 0.00 | 0.00 | 0.00 | 61 | 1008.8 |
| 20260509084311 | 57 | 242 | 0.0 | 1.0 | 0.00 | 0.00 | 0.00 | 60 | 1008.9 |
| 20260509083338 | 58 | 242 | 0.0 | 2.0 | 0.00 | 0.00 | 0.00 | 57 | 1008.8 |
| 20260509082353 | 58 | 222 | 1.0 | 6.0 | 0.00 | 0.00 | 0.00 | 56 | 1008.9 |
| 20260509081336 | 58 | 206 | 2.0 | 3.0 | 0.00 | 0.00 | 0.00 | 55 | 1008.9 |
| 20260509080341 | 59 | 193 | 1.0 | 5.0 | 0.00 | 0.00 | 0.00 | 55 | 1009.0 |
| 20260509075319 | 59 | 201 | 4.0 | 7.0 | 0.00 | 0.00 | 0.00 | 53 | 1008.9 |
| 20260509074333 | 59 | 209 | 3.0 | 5.0 | 0.00 | 0.00 | 0.00 | 53 | 1008.9 |
| 20260509073319 | 59 | 218 | 1.0 | 4.0 | 0.00 | 0.00 | 0.00 | 54 | 1009.1 |
| 20260509072319 | 59 | 186 | 2.0 | 9.0 | 0.00 | 0.00 | 0.00 | 52 | 1008.9 |
| 20260509071318 | 59 | 153 | 2.0 | 8.0 | 0.00 | 0.00 | 0.00 | 53 | 1008.9 |
| 20260509070318 | 59 | 159 | 4.0 | 8.0 | 0.00 | 0.00 | 0.00 | 53 | 1008.9 |
| 20260509065316 | 59 | 143 | 4.0 | 7.0 | 0.00 | 0.00 | 0.00 | 52 | 1008.9 |
| 20260509064318 | 59 | 136 | 3.0 | 6.0 | 0.00 | 0.00 | 0.00 | 53 | 1009.0 |
| 20260509063319 | 59 | 161 | 4.0 | 8.0 | 0.00 | 0.00 | 0.00 | 53 | 1009.0 |
| 20260509062322 | 58 | 180 | 3.0 | 6.0 | 0.00 | 0.00 | 0.00 | 55 | 1009.2 |
| 20260509061340 | 58 | 165 | 2.0 | 4.0 | 0.00 | 0.00 | 0.00 | 55 | 1009.3 |
| 20260509060342 | 60 | 228 | 1.0 | 2.0 | 0.00 | 0.00 | 0.00 | 52 | 1009.4 |
| 20260509055340 | 60 | 225 | 2.0 | 6.0 | 0.00 | 0.00 | 0.00 | 50 | 1009.3 |
| 20260509054316 | 61 | 167 | 2.0 | 7.0 | 0.00 | 0.00 | 0.00 | 49 | 1009.3 |
| 20260509053316 | 61 | 194 | 4.0 | 8.0 | 0.00 | 0.00 | 0.00 | 49 | 1009.2 |
| 20260509052316 | 61 | 186 | 3.0 | 8.0 | 0.00 | 0.00 | 0.00 | 49 | 1009.2 |
| 20260509051357 | 61 | 165 | 4.0 | 10.0 | 0.00 | 0.00 | 0.00 | 50 | 1009.3 |
| 20260509050350 | 59 | 152 | 5.0 | 12.0 | 0.00 | 0.00 | 0.00 | 53 | 1009.2 |
| 20260509045339 | 57 | 149 | 6.0 | 9.0 | 0.00 | 0.00 | 0.00 | 57 | 1009.2 |
| 20260509044340 | 57 | 199 | 1.0 | 1.0 | 0.00 | 0.00 | 0.00 | 59 | 1009.5 |
| 20260509043402 | 58 | 199 | 0.0 | 1.0 | 0.00 | 0.00 | 0.00 | 56 | 1009.6 |
| 20260509042315 | 59 | 199 | 0.0 | 1.0 | 0.00 | 0.00 | 0.00 | 54 | 1009.7 |
| 20260509041338 | 59 | 199 | 0.0 | 2.0 | 0.00 | 0.00 | 0.00 | 52 | 1009.7 |
| 20260509040329 | 59 | 172 | 2.0 | 6.0 | 0.00 | 0.00 | 0.00 | 51 | 1009.6 |
| 20260509035339 | 59 | 128 | 3.0 | 6.0 | 0.00 | 0.00 | 0.00 | 51 | 1009.8 |
| 20260509034340 | 60 | 150 | 2.0 | 7.0 | 0.00 | 0.00 | 0.00 | 50 | 1009.9 |
| 20260509033339 | 60 | 161 | 4.0 | 7.0 | 0.00 | 0.00 | 0.00 | 49 | 1009.8 |
| 20260509032315 | 60 | 145 | 4.0 | 7.0 | 0.00 | 0.00 | 0.00 | 48 | 1009.8 |
| 20260509031316 | 61 | 129 | 3.0 | 8.0 | 0.00 | 0.00 | 0.00 | 47 | 1009.9 |
| 20260509030316 | 61 | 150 | 4.0 | 13.0 | 0.00 | 0.00 | 0.00 | 47 | 1009.8 |
| 20260509025316 | 61 | 140 | 5.0 | 9.0 | 0.00 | 0.00 | 0.00 | 48 | 1009.8 |
| 20260509024314 | 59 | 120 | 4.0 | 10.0 | 0.00 | 0.00 | 0.00 | 50 | 1010.0 |
| 20260509023317 | 58 | 148 | 3.0 | 6.0 | 0.00 | 0.00 | 0.00 | 55 | 1010.1 |
| 20260509022340 | 59 | 252 | 1.0 | 3.0 | 0.00 | 0.00 | 0.00 | 55 | 1010.3 |
| 20260509021315 | 61 | 221 | 1.0 | 6.0 | 0.00 | 0.00 | 0.00 | 52 | 1010.3 |
| 20260509020330 | 61 | 105 | 3.0 | 8.0 | 0.00 | 0.00 | 0.00 | 47 | 1010.3 |
| 20260509015338 | 61 | 126 | 4.0 | 7.0 | 0.00 | 0.00 | 0.00 | 47 | 1010.1 |
| 20260509014352 | 61 | 161 | 2.0 | 5.0 | 0.00 | 0.00 | 0.00 | 49 | 1010.0 |
| 20260509013335 | 60 | 143 | 3.0 | 7.0 | 0.00 | 0.00 | 0.00 | 51 | 1010.0 |
| 20260509012319 | 60 | 142 | 1.0 | 3.0 | 0.00 | 0.00 | 0.00 | 56 | 1009.9 |
| 20260509011349 | 61 | 117 | 1.0 | 2.0 | 0.00 | 0.00 | 0.00 | 52 | 1010.0 |
| 20260509010338 | 61 | 110 | 2.0 | 4.0 | 0.00 | 0.00 | 0.00 | 51 | 1010.1 |
| 20260509005321 | 60 | 126 | 3.0 | 7.0 | 0.00 | 0.00 | 0.00 | 50 | 1010.1 |
| 20260509004322 | 59 | 106 | 2.0 | 4.0 | 0.00 | 0.00 | 0.00 | 54 | 1010.0 |
| 20260509003336 | 60 | 114 | 1.0 | 3.0 | 0.00 | 0.00 | 0.00 | 55 | 1009.9 |
| 20260509002314 | 60 | 122 | 1.0 | 3.0 | 0.00 | 0.00 | 0.00 | 56 | 1009.9 |
| 20260509001316 | 61 | 133 | 1.0 | 3.0 | 0.00 | 0.00 | 0.00 | 55 | 1009.7 |
| 20260509000359 | 62 | 133 | 2.0 | 3.0 | 0.00 | 0.00 | 0.00 | 50 | 1009.7 |
| 20260508235334 | 64 | 351 | 1.0 | 1.0 | 0.00 | 0.00 | 0.00 | 49 | 1009.5 |
| 20260508234338 | 66 | 351 | 0.0 | 2.0 | 0.00 | 0.00 | 0.00 | 45 | 1009.5 |
| 20260508233314 | 66 | 360 | 2.0 | 3.0 | 0.00 | 0.00 | 0.00 | 42 | 1009.5 |
| 20260508232318 | 67 | 351 | 3.0 | 6.0 | 0.00 | 0.00 | 0.00 | 41 | 1009.5 |
| 20260508231315 | 67 | 351 | 2.0 | 5.0 | 0.00 | 0.00 | 0.00 | 42 | 1009.5 |
| 20260508230339 | 67 | 302 | 3.0 | 5.0 | 0.00 | 0.00 | 0.00 | 40 | 1009.5 |
| 20260508225359 | 65 | 300 | 1.0 | 2.0 | 0.00 | 0.00 | 0.00 | 48 | 1009.5 |
| 20260508224338 | 66 | 301 | 1.0 | 5.0 | 0.00 | 0.00 | 0.00 | 42 | 1009.5 |
| 20260508223335 | 66 | 323 | 3.0 | 6.0 | 0.00 | 0.00 | 0.00 | 42 | 1009.6 |
| 20260508222337 | 66 | 331 | 2.0 | 6.0 | 0.00 | 0.00 | 0.00 | 42 | 1009.5 |
| 20260508221335 | 66 | 307 | 4.0 | 9.0 | 0.00 | 0.00 | 0.00 | 41 | 1009.6 |
| 20260508220339 | 66 | 292 | 4.0 | 10.0 | 0.00 | 0.00 | 0.00 | 40 | 1009.7 |
| 20260508215316 | 66 | 289 | 3.0 | 10.0 | 0.00 | 0.00 | 0.00 | 41 | 1009.6 |
| 20260508214334 | 66 | 289 | 4.0 | 9.0 | 0.00 | 0.00 | 0.00 | 39 | 1009.6 |
| 20260508213358 | 66 | 330 | 4.0 | 10.0 | 0.00 | 0.00 | 0.00 | 39 | 1009.7 |
| 20260508212350 | 66 | 310 | 4.0 | 15.0 | 0.00 | 0.00 | 0.00 | 38 | 1009.7 |
| 20260508211316 | 66 | 301 | 5.0 | 12.0 | 0.00 | 0.00 | 0.00 | 36 | 1009.8 |
| 20260508210340 | 67 | 296 | 4.0 | 13.0 | 0.00 | 0.00 | 0.00 | 35 | 1009.7 |
| 20260508205318 | 67 | 284 | 3.0 | 12.0 | 0.00 | 0.00 | 0.00 | 36 | 1009.6 |
| 20260508204320 | 67 | 286 | 7.0 | 10.0 | 0.00 | 0.00 | 0.00 | 35 | 1009.6 |
| 20260508203340 | 67 | 246 | 3.0 | 9.0 | 0.00 | 0.00 | 0.00 | 36 | 1009.7 |
| 20260508202316 | 68 | 246 | 4.0 | 10.0 | 0.00 | 0.00 | 0.00 | 36 | 1009.8 |
| 20260508201353 | 69 | 300 | 5.0 | 13.0 | 0.00 | 0.00 | 0.00 | 33 | 1010.0 |